Regional Weather Roundup
Issued by NWS

Home | Current Version | Previous Version | Graphics & Text | Print | Product List | Glossary On
Versions: 1 2 3 4 5 6 7 8 9 10 11 12 13 14 15 16 17 18 19 20 21 22 23 24 25 26 27 28 29 30 31 32 33 34 35 36 37 38 39 40 41 42 43 44 45 46 47 48 49 50
657
ASUS43 KMPX 280501
RWRMN
WEATHER ROUNDUP FOR MINNESOTA
NATIONAL WEATHER SERVICE TWIN CITIES/CHANHASSEN MN
1200 AM CDT SUN MAY 28 2017


NOTE: "FAIR" INDICATES FEW OR NO CLOUDS BELOW 12,000 FEET WITH NO
SIGNIFICANT WEATHER AND/OR OBSTRUCTIONS TO VISIBILITY. N/A MEANS
CURRENT SKY AND/OR WEATHER CONDITIONS ARE NOT AVAILABLE.

MNZ060>063-068>070-280600-
   Twin Cities Metro

CITY           SKY/WX    TMP DP  RH WIND       PRES   REMARKS
TWIN CITIES    CLOUDY    66  46  48 SW7       29.81F
ST PAUL        CLOUDY    61  51  70 SE6       29.81F
CRYSTAL        CLOUDY    63  47  55 S7        29.79F
BLAINE         CLOUDY    66  48  52 S7        29.80F
LAKEVILLE      CLOUDY    61  46  59 CALM      29.82F
EDEN PRAIRIE   PTCLDY    63  49  60 SW7       29.80F
SOUTH ST PAUL  CLOUDY    61  49  63 CALM      29.81F
LAKE ELMO      MOCLDY    59  50  72 S6        29.82F
$$
MNZ001>005-007-008-013>017-022>024-027-028-280600-
   Northwest Minnesota

CITY           SKY/WX    TMP DP  RH WIND       PRES   REMARKS
BEMIDJI        MOCLDY    55  49  80 SW8       29.73R
HALLOCK        DRIZZLE   54  48  82 NW8       29.71F
ROSEAU         CLOUDY    59  48  67 W7        29.68F
WARROAD        CLOUDY    57  48  72 NW3       29.68F
CROOKSTON      CLOUDY    52  50  93 NW10      29.73S
FOSSTON        RAIN      52  45  76 NW18G33   29.72R
DETROIT LAKES  RAIN      54  46  76 NW7       29.77S
MOORHEAD       CLOUDY    55  46  71 W6        29.78R
PARK RAPIDS    LGT RAIN  57  46  66 W7        29.73S
MAHNOMEN       LGT RAIN  53  47  82 NW9       29.73F
$$
MNZ006-009>011-018-025>026-280600-
   North Central Minnesota

CITY           SKY/WX    TMP DP  RH WIND       PRES   REMARKS
BAUDETTE       CLOUDY    54  46  74 N3        29.69S
FLAG ISLAND    PTCLDY    61  45  55 SW9       29.65F
INTL FALLS     MOCLDY    50  43  77 CALM      29.69F
WASKISH        CLOUDY    57  46  67 S5        29.69F
BIG FORK       MOCLDY    52  46  82 S6        29.73S
LONGVILLE      CLOUDY    55  52  88 CALM      29.73F
GRAND RAPIDS   CLOUDY    60  45  57 SW5       29.77F
CRANE LAKE     CLOUDY    52  48  87 CALM      29.74S
COOK           PTCLDY    54  45  71 CALM      29.74F
WALKER         CLOUDY    55  49  80 W3        29.72F
$$
MNZ012-019>021-037-280600-
   Northeast Minnesota

CITY           SKY/WX    TMP DP  RH WIND       PRES   REMARKS
DULUTH         MOCLDY    61  43  51 SW9       29.75F
ELY            CLEAR     55  43  62 CALM      29.75F
HIBBING        PTCLDY    44  41  89 NW8       29.74F
EVELETH        PTCLDY    50  42  74 CALM      29.76F
DULUTH HARBOR  PTCLDY    61  52  72 S7        29.75F
TWO HARBORS    CLOUDY    63  48  59 CALM      29.73F
SILVER BAY     CLOUDY    52  46  82 CALM      29.73F
GRAND MARAIS     N/A     47  42  83 CALM      29.74F
G MARAIS ARPRT PTCLDY    52  39  62 CALM      29.77F
$$
MNZ029>031-032-039>041-046>048-054>057-064-280600-
   West Central Minnesota

CITY           SKY/WX    TMP DP  RH WIND       PRES   REMARKS
FERGUS FALLS   DRIZZLE   55  46  71 N14       29.76S
WHEATON        LGT RAIN  59  46  63 SW3       29.81F
MORRIS         MOCLDY    63  46  55 W23G30    29.80R
ALEXANDRIA     MOCLDY    60  46  59 SW13      29.78F
ELBOW LAKE     FAIR      58  47  66 W20       29.80R
WADENA         PTCLDY    61  45  55 SW16      29.73F
GLENWOOD       CLEAR     57  46  67 SW9       29.79F
APPLETON       PTCLDY    63  46  55 SW12      29.77F
BENSON         PTCLDY    59  46  63 W6        29.80F
ORTONVILLE     MOCLDY    63  46  55 NW10G17   29.82R
MADISON        CLOUDY    64  48  55 SW13G18   29.80F
WILLMAR        FAIR      61  46  59 S3        29.81F
$$
MNZ033>034-036-042>043-049>051-058-059-280600-
   Central Minnesota

CITY           SKY/WX    TMP DP  RH WIND       PRES   REMARKS
ST CLOUD       PTCLDY    57  46  66 S5        29.77F
SAUK CENTRE    FAIR      60  46  59 SW10      29.78F
PAYNESVILLE    CLEAR     61  45  55 SW9       29.79F
AITKIN         PTCLDY    57  45  62 SW3       29.74F
PINE RIVER     PTCLDY    55  46  71 CALM      29.77F
BRAINERD       PTCLDY    57  44  62 CALM      29.76F
STAPLES        CLEAR     59  43  55 S7        29.73F
LONG PRAIRIE   FAIR      59  43  55 S10       29.77F
LITTLE FALLS   CLEAR     57  43  58 S3        29.77F
LITCHFIELD     CLOUDY    61  48  63 SW3       29.80F
BUFFALO        CLOUDY    62  46  54 S3        29.80F
MAPLE LAKE     MOCLDY    62  48  61 CALM      29.80F
HUTCHINSON     CLOUDY    62  49  62 SW6       29.82F
$$
MNZ037-044-045-052-053-280600-
   East Central Minnesota

CITY           SKY/WX    TMP DP  RH WIND       PRES   REMARKS
PRINCETON      PTCLDY    61  48  63 S3        29.78F
MORA           CLOUDY    57  45  62 SW5       29.80F
CAMBRIDGE      MOCLDY    64  48  55 S5        29.77F
RUSH CITY      CLOUDY    59  49  71 S3        29.79F
MOOSE LAKE     MOCLDY    50  45  81 CALM      29.75F
HINCKLEY       FAIR      52  50  93 CALM      29.78F
CLOQUET        CLOUDY    59  41  51 SW6       29.76F
MCGREGOR       CLEAR     55  46  71 S3        29.76F
$$
MNZ071>073-080-081-089-090-097-098-280600-
   Southwest Minnesota

CITY           SKY/WX    TMP DP  RH WIND       PRES   REMARKS
MONTEVIDEO     CLEAR     61  46  59 W10       29.80F
CANBY          MOCLDY    63  48  59 SW12G17   29.82F
MARSHALL       CLEAR     60  48  64 SW13      29.83F
REDWOOD FALLS  CLEAR     60  47  61 SW10      29.81F
OLIVIA         CLEAR     55  46  71 SW7       29.81F
PIPESTONE      CLEAR     55  45  67 SW7       29.87F
WINDOM         PTCLDY    59  50  72 SW7       29.86F
WORTHINGTON    CLOUDY    58  52  80 SW13      29.88F
JACKSON        PTCLDY    57  50  77 CALM      29.87F
TRACY          CLEAR     57  50  76 SW10      29.85F
SLAYTON        CLOUDY    55  49  79 SW6       29.88F
$$
MNZ065>067-074>077-082>085-091>093-280600-
   South Central Minnesota

CITY           SKY/WX    TMP DP  RH WIND       PRES   REMARKS
MANKATO        MOCLDY    63  48  58 SW7       29.84F
NEW ULM        CLOUDY    61  50  67 SW7       29.83F
ST JAMES       CLOUDY    61  52  72 SW5       29.85F
FAIRMONT       CLOUDY    61  50  67 W8        29.86F
GLENCOE        CLOUDY    64  51  62 SW5       29.80F
FARIBAULT      CLOUDY    61  46  59 S5        29.84F
OWATONNA       CLOUDY    61  46  59 S9        29.84F
WASECA         CLOUDY    59  45  58 S5        29.86F
ALBERT LEA     MOCLDY    57  55  94 CALM      29.85F
$$
MNZ078>079-086>088-094>096-280600-
   Southeast Minnesota

CITY           SKY/WX    TMP DP  RH WIND       PRES   REMARKS
ROCHESTER      MOCLDY    55  52  89 SW8       29.86F
RED WING       CLOUDY    55  48  76 SE5       29.82F
STANTON        CLOUDY    61  47  60 S3        29.81F
DODGE CENTER   CLOUDY    55  46  71 S5        29.86S
WINONA         CLOUDY    55  55 100 CALM      29.83F
AUSTIN         CLOUDY    54  50  87 CALM      29.85F
PRESTON        CLOUDY    55  49  80 W7        29.86F
$$
ABBREVIATIONS USED IN REMARKS
   TC - TEMPERATURES IN CELSIUS
  WCI - WIND CHILL INDEX
   HX - HEAT INDEX
  VSB - VISIBILITY
$$




USA.gov is the U.S. government's official web portal to all federal, state and local government web resources and services.